Flag for Switzerland Weather past 2 weeks in Geneva, Geneva, Switzerland

Now
50 °F

Cool.


Feels Like: 46 °F
Forecast: 46 / 55 °F
Wind: 10 mph from Southwest

Location: Geneve-Cointrin

Current Time: Mar 30, 2015 at 9:39:23 AM

Latest Report: Mar 30, 2015 at 9:00 AM


Visibility: N/A

Pressure: 29.90 "Hg

Humidity: 90%

Dew point: 47 °F

Location of GenevaLocation

Historic Weather in Geneva — Graph

°F

Geneva temperature yesterday

Maximum temperature yesterday: 53 °F (at 12:00 PM)
Minimum temperature yesterday: 44 °F (at 1:00 AM)
Average temperature yesterday: 49 °F

Past Weeks' High & Low Weather Summary

 TemperatureHumidityPressure
High63 °F (Mar 18, 5:00 PM)94% (Mar 29, 1:00 AM)30.33 "Hg (Mar 29, 1:00 AM)
Low31 °F (Mar 15, 7:00 AM)33% (Mar 18, 4:00 PM)29.64 "Hg (Mar 25, 8:00 AM)
Average47 °F70%30.06 "Hg
* Reported Mar 15 7:00 AM — Mar 30 8:00 AM, Geneva, Weather by CustomWeather, © 2015

Note: Actual official high and low records may vary slightly from our data, if they occured in-between our weather recording intervals... More about our weather records

Advertising

Geneva weather history for previous 24 hours

 ConditionsComfort  
Time TempWeatherWind HumidityBarometerVisibility
8:00 AM
Mon, Mar 30
49 °FLight rain. Overcast.13 mph87%29.89 "Hg5 mi
7:00 AM49 °FCool.12 mph89%29.90 "HgN/A
6:00 AM49 °FCool.14 mph88%29.89 "HgN/A
5:00 AM49 °FLight rain. Low clouds.18 mph86%29.87 "Hg7 mi
4:00 AM49 °FCool.16 mph87%29.90 "HgN/A
3:00 AM50 °FCool.20 mph84%29.91 "HgN/A
2:00 AM50 °FRain. Low clouds.20 mph85%29.93 "Hg6 mi
1:00 AM50 °FCool.17 mph88%29.95 "HgN/A
12:00 AM50 °FCool.17 mph89%29.97 "HgN/A
10:00 PM
Sun, Mar 29
50 °FCool.20 mph89%29.97 "HgN/A
9:00 PM50 °FCool.20 mph88%29.97 "HgN/A
8:00 PM49 °FRain showers. Overcast.12 mph90%30.01 "Hg4 mi
7:00 PM50 °FCool.9 mph88%30.01 "HgN/A
6:00 PM51 °FCool.15 mph80%30.03 "HgN/A
5:00 PM52 °FLight rain. Overcast.16 mph78%30.05 "Hg6 mi
4:00 PM50 °FCool.17 mph84%30.07 "HgN/A
3:00 PM51 °FCool.13 mph84%30.07 "HgN/A
2:00 PM51 °FLight rain. Overcast.10 mph87%30.09 "Hg6 mi
1:00 PM52 °FCool.12 mph80%30.08 "HgN/A
12:00 PM53 °FCool.15 mph69%30.09 "HgN/A
11:00 AM52 °FOvercast.9 mph73%30.10 "Hg12 mi
10:00 AM49 °FCool.7 mph79%30.12 "HgN/A
9:00 AM47 °FCool.8 mph86%30.14 "HgN/A
Weather by CustomWeather, © 2015

See weather overviewHow to use our weather pages